{"data":{"norad_id":65127,"intl_designator":"2025-170J","name":"GEESAT-4 09","alt_names":[],"object_type":"PAYLOAD","status":"ACTIVE","operator":null,"country":"PRC","launch_date":"2025-08-08","launch_site_code":"YSLA","launch_vehicle":null,"mission":null,"orbit_class":"UNKNOWN","rcs_meters":null,"size_class":null,"mass_kg":null,"dimensions":null,"purposes":[],"wikipedia_slug":null,"has_3d_model":false,"image_url":null,"decayed_at":null,"tle_current":{"epoch":"2026-05-25T03:33:15.352704Z","epoch_age_seconds":56217,"freshness":"FRESH","line1":"1 65127U 25170J   26145.14809436  .00001349  00000+0  19905-3 0  9992","line2":"2 65127  49.9926 310.3512 0021954 302.4385  57.4429 14.81296816 42589","mean_motion":14.81296816,"eccentricity":0.0021954,"inclination_deg":49.9926,"raan_deg":310.3512,"arg_perigee_deg":302.4385,"mean_anomaly_deg":57.4429,"bstar":0.00019905,"rev_number":4258,"period_min":97.212117412666,"perigee_km":609.8585034661,"apogee_km":640.60890355106,"semimajor_km":7003.3707035086,"source":"CELESTRAK","updated_at":"2026-05-25T13:38:05.139450Z"}}}